Location: �perlecques
(50.8057°N, 2.1521°E)
Time: 23:53:01
(UTC+00:00)

VELOX 1 - Pass Details

Date: 04 October 2021
Orbit: 627 x 642 km, 98.3° (Epoch: 21 October)

Event Time Altitude Azimuth Distance (km) Brightness Sun altitude
Exits shadow 04:26:30 19° 296° (WNW) 1,522 ? -15.0°
Drops below altitude 10° 04:28:25 10° 319° (NW) 2,015 ? -14.7°
Sets 04:31:03 0° 335° (NNW) 2,927 ? -14.3°
